Time,TemperatureF,DewpointF,PressureIn,WindDirection,WindDirectionDegrees,WindSpeedMPH,WindSpeedGustMPH,Humidity,HourlyPrecipIn,Conditions,Clouds,dailyrainin,SoftwareType,DateUTC
2013-04-16 00:00:00,58.0,52.0,29.91,WSW,250,21.0,-999.0,79,-99.99,,,-99.99,,2013-04-16 00:00:00,
2013-04-16 00:11:00,58.0,52.0,29.91,WSW,250,21.0,-999.0,79,-99.99,,,-99.99,,2013-04-16 00:11:00,
2013-04-16 00:21:00,58.0,52.0,29.91,WSW,250,21.0,-999.0,79,-99.99,,,-99.99,,2013-04-16 00:21:00,
2013-04-16 00:31:00,58.0,52.0,29.91,WSW,250,21.0,-999.0,79,-99.99,,,-99.99,,2013-04-16 00:31:00,
2013-04-16 00:41:00,58.0,52.0,29.91,WSW,250,21.0,-999.0,79,-99.99,,,-99.99,,2013-04-16 00:41:00,
2013-04-16 00:51:00,58.0,52.0,29.91,WSW,250,21.0,-999.0,79,-99.99,,,-99.99,,2013-04-16 00:51:00,
2013-04-16 01:00:00,58.0,54.0,29.92,WSW,250,22.0,-999.0,84,-99.99,,,-99.99,,2013-04-16 01:00:00,
2013-04-16 01:21:00,58.0,54.0,29.92,WSW,250,22.0,-999.0,84,-99.99,,,-99.99,,2013-04-16 01:21:00,
2013-04-16 01:31:00,58.0,54.0,29.92,WSW,250,22.0,-999.0,84,-99.99,,,-99.99,,2013-04-16 01:31:00,
2013-04-16 01:41:00,58.0,54.0,29.92,WSW,250,22.0,-999.0,84,-99.99,,,-99.99,,2013-04-16 01:41:00,
2013-04-16 01:51:00,58.0,54.0,29.92,WSW,250,22.0,-999.0,84,-99.99,,,-99.99,,2013-04-16 01:51:00,
2013-04-16 02:00:00,57.0,52.0,29.92,WSW,250,22.0,-999.0,82,-99.99,,,-99.99,,2013-04-16 02:00:00,
2013-04-16 02:21:00,57.0,52.0,29.92,WSW,250,22.0,-999.0,82,-99.99,,,-99.99,,2013-04-16 02:21:00,
2013-04-16 02:31:00,57.0,52.0,29.92,WSW,250,22.0,-999.0,82,-99.99,,,-99.99,,2013-04-16 02:31:00,
2013-04-16 02:42:00,57.0,52.0,29.92,WSW,250,22.0,-999.0,82,-99.99,,,-99.99,,2013-04-16 02:42:00,
2013-04-16 02:51:00,57.0,52.0,29.92,WSW,250,22.0,-999.0,82,-99.99,,,-99.99,,2013-04-16 02:51:00,
2013-04-16 04:00:00,59.0,54.0,29.92,SW,220,17.0,-999.0,82,-99.99,,,-99.99,,2013-04-16 04:00:00,
2013-04-16 04:52:00,59.0,54.0,29.92,SW,220,17.0,-999.0,82,-99.99,,,-99.99,,2013-04-16 04:52:00,
2013-04-16 05:00:00,57.0,50.0,29.93,WSW,250,18.0,-999.0,76,-99.99,,,-99.99,,2013-04-16 05:00:00,
2013-04-16 05:51:00,57.0,50.0,29.93,WSW,250,18.0,-999.0,76,-99.99,,,-99.99,,2013-04-16 05:51:00,
2013-04-16 07:00:00,57.0,52.0,29.62,WSW,250,16.0,-999.0,82,-99.99,,,-99.99,,2013-04-16 07:00:00,
2013-04-16 07:21:00,57.0,52.0,29.62,WSW,250,16.0,-999.0,82,-99.99,,,-99.99,,2013-04-16 07:21:00,
2013-04-16 07:31:00,57.0,52.0,29.62,WSW,250,16.0,-999.0,82,-99.99,,,-99.99,,2013-04-16 07:31:00,
2013-04-16 07:41:00,57.0,52.0,29.62,WSW,250,16.0,-999.0,82,-99.99,,,-99.99,,2013-04-16 07:41:00,
2013-04-16 07:52:00,57.0,52.0,29.62,WSW,250,16.0,-999.0,82,-99.99,,,-99.99,,2013-04-16 07:52:00,
2013-04-16 08:00:00,59.0,50.0,29.63,WSW,250,5.0,-999.0,72,-99.99,,,-99.99,,2013-04-16 08:00:00,
2013-04-16 08:11:00,59.0,50.0,29.63,WSW,250,5.0,-999.0,72,-99.99,,,-99.99,,2013-04-16 08:11:00,
2013-04-16 08:21:00,59.0,50.0,29.63,WSW,250,5.0,-999.0,72,-99.99,,,-99.99,,2013-04-16 08:21:00,
2013-04-16 08:31:00,59.0,50.0,29.63,WSW,250,5.0,-999.0,72,-99.99,,,-99.99,,2013-04-16 08:31:00,
2013-04-16 08:41:00,59.0,50.0,29.63,WSW,250,5.0,-999.0,72,-99.99,,,-99.99,,2013-04-16 08:41:00,
2013-04-16 08:51:00,59.0,50.0,29.63,WSW,250,5.0,-999.0,72,-99.99,,,-99.99,,2013-04-16 08:51:00,
2013-04-16 09:00:00,57.0,52.0,29.65,South,180,10.0,-999.0,82,-99.99,,,-99.99,,2013-04-16 09:00:00,
2013-04-16 09:21:00,57.0,52.0,29.65,South,180,10.0,-999.0,82,-99.99,,,-99.99,,2013-04-16 09:21:00,
2013-04-16 09:32:00,57.0,52.0,29.65,South,180,10.0,-999.0,82,-99.99,,,-99.99,,2013-04-16 09:32:00,
2013-04-16 09:42:00,57.0,52.0,29.65,South,180,10.0,-999.0,82,-99.99,,,-99.99,,2013-04-16 09:42:00,
2013-04-16 09:52:00,57.0,52.0,29.65,South,180,10.0,-999.0,82,-99.99,,,-99.99,,2013-04-16 09:52:00,
2013-04-16 11:00:00,56.0,50.0,29.99,South,180,15.0,-999.0,79,-99.99,,,-99.99,,2013-04-16 11:00:00,
2013-04-16 11:21:00,56.0,50.0,29.99,South,180,15.0,-999.0,79,-99.99,,,-99.99,,2013-04-16 11:21:00,
2013-04-16 11:31:00,56.0,50.0,29.99,South,180,15.0,-999.0,79,-99.99,,,-99.99,,2013-04-16 11:31:00,
2013-04-16 11:41:00,56.0,50.0,29.99,South,180,15.0,-999.0,79,-99.99,,,-99.99,,2013-04-16 11:41:00,
2013-04-16 11:52:00,56.0,50.0,29.99,South,180,15.0,-999.0,79,-99.99,,,-99.99,,2013-04-16 11:52:00,
2013-04-16 12:00:00,56.0,54.0,29.97,South,180,15.0,-999.0,90,-99.99,,,-99.99,,2013-04-16 12:00:00,
2013-04-16 12:21:00,56.0,54.0,29.97,South,180,15.0,-999.0,90,-99.99,,,-99.99,,2013-04-16 12:21:00,
2013-04-16 12:31:00,56.0,54.0,29.97,South,180,15.0,-999.0,90,-99.99,,,-99.99,,2013-04-16 12:31:00,
2013-04-16 12:41:00,56.0,54.0,29.97,South,180,15.0,-999.0,90,-99.99,,,-99.99,,2013-04-16 12:41:00,
2013-04-16 12:51:00,56.0,54.0,29.97,South,180,15.0,-999.0,90,-99.99,,,-99.99,,2013-04-16 12:51:00,
2013-04-16 14:00:00,57.0,52.0,29.97,South,180,15.0,-999.0,82,-99.99,,,-99.99,,2013-04-16 14:00:00,
2013-04-16 14:11:00,57.0,52.0,29.97,South,180,15.0,-999.0,82,-99.99,,,-99.99,,2013-04-16 14:11:00,
2013-04-16 14:22:00,57.0,52.0,29.97,South,180,15.0,-999.0,82,-99.99,,,-99.99,,2013-04-16 14:22:00,
2013-04-16 14:32:00,57.0,52.0,29.97,South,180,15.0,-999.0,82,-99.99,,,-99.99,,2013-04-16 14:32:00,
2013-04-16 14:41:00,57.0,52.0,29.97,South,180,15.0,-999.0,82,-99.99,,,-99.99,,2013-04-16 14:41:00,
2013-04-16 14:51:00,57.0,52.0,29.97,South,180,15.0,-999.0,82,-99.99,,,-99.99,,2013-04-16 14:51:00,
2013-04-16 17:00:00,59.0,54.0,29.97,South,180,15.0,-999.0,82,-99.99,,,-99.99,,2013-04-16 17:00:00,
2013-04-16 17:11:00,59.0,54.0,29.97,South,180,15.0,-999.0,82,-99.99,,,-99.99,,2013-04-16 17:11:00,
2013-04-16 17:22:00,59.0,54.0,29.97,South,180,15.0,-999.0,82,-99.99,,,-99.99,,2013-04-16 17:22:00,
2013-04-16 17:32:00,59.0,54.0,29.97,South,180,15.0,-999.0,82,-99.99,,,-99.99,,2013-04-16 17:32:00,
2013-04-16 17:43:00,59.0,54.0,29.97,South,180,15.0,-999.0,82,-99.99,,,-99.99,,2013-04-16 17:43:00,
2013-04-16 17:52:00,59.0,54.0,29.97,South,180,15.0,-999.0,82,-99.99,,,-99.99,,2013-04-16 17:52:00,
2013-04-16 19:00:00,57.0,54.0,29.99,South,180,14.0,-999.0,87,-99.99,,,-99.99,,2013-04-16 19:00:00,
2013-04-16 19:21:00,57.0,54.0,29.99,South,180,14.0,-999.0,87,-99.99,,,-99.99,,2013-04-16 19:21:00,
2013-04-16 19:31:00,57.0,54.0,29.99,South,180,14.0,-999.0,87,-99.99,,,-99.99,,2013-04-16 19:31:00,
2013-04-16 19:41:00,57.0,54.0,29.99,South,180,14.0,-999.0,87,-99.99,,,-99.99,,2013-04-16 19:41:00,
2013-04-16 19:52:00,57.0,54.0,29.99,South,180,14.0,-999.0,87,-99.99,,,-99.99,,2013-04-16 19:52:00,
2013-04-16 21:00:00,54.0,50.0,29.71,South,180,16.0,-999.0,87,-99.99,,,-99.99,,2013-04-16 21:00:00,
2013-04-16 21:11:00,54.0,50.0,29.71,South,180,16.0,-999.0,87,-99.99,,,-99.99,,2013-04-16 21:11:00,
2013-04-16 21:32:00,54.0,50.0,29.71,South,180,16.0,-999.0,87,-99.99,,,-99.99,,2013-04-16 21:32:00,
2013-04-16 21:42:00,54.0,50.0,29.71,South,180,16.0,-999.0,87,-99.99,,,-99.99,,2013-04-16 21:42:00,
2013-04-16 21:52:00,54.0,50.0,29.71,South,180,16.0,-999.0,87,-99.99,,,-99.99,,2013-04-16 21:52:00,